Regional Weather Roundup
Issued by NWS Sioux Falls, SD

Home | Current Version | Previous Version | Text Only | Print | Product List | Glossary Off
Versions: 1 2 3 4 5 6 7 8 9 10 11 12 13 14 15 16 17 18 19 20 21 22 23 24 25 26 27 28 29 30 31 32 33 34 35 36 37 38 39 40 41 42 43 44 45 46 47 48 49 50

194
ASUS43 KFSD 300602
RWRFSD

WEATHER ROUNDUP FOR SE SOUTH DAKOTA/SW MINNESOTA/NW IOWA
NATIONAL WEATHER SERVICE SIOUX FALLS SD
100 AM CDT SAT APR 30 2016

NOTE: "FAIR" INDICATES FEW OR NO CLOUDS BELOW 12,000 FEET WITH NO
SIGNIFICANT WEATHER AND OR OBSTRUCTIONS TO VISIBILITY.


SDZ038>040-050-052>070-300700-
SOUTHEAST SOUTH DAKOTA

CITY           SKY/WX    TMP DP  RH WIND       PRES   REMARKS
BROOKINGS      CLOUDY    39  36  89 E3        30.07S
CHAMBERLAIN    NOT AVBL
HURON          CLOUDY    42  39  89 NE7       30.06F
6HR MIN TEMP:  41; 6HR MAX TEMP:  50;

MADISON        CLOUDY    41  41 100 E8        30.06S
MITCHELL       CLOUDY    46  42  86 NE12      30.04F
6HR MIN TEMP:  46; 6HR MAX TEMP:  50;

SIOUX FALLS    CLOUDY    44  39  82 E6        30.06R
6HR MIN TEMP:  41; 6HR MAX TEMP:  50;

WINNER         CLOUDY    43  39  86 N7        30.00F
YANKTON        CLOUDY    45  39  81 NE12      30.02F
$$

MNZ071-072-080-081-089-090-097-098-300700-
SOUTHWEST MINNESOTA

CITY           SKY/WX    TMP DP  RH WIND       PRES   REMARKS
FAIRMONT       CLOUDY    41  27  56 E7        30.08R
JACKSON        CLOUDY    41  36  81 E7        30.07S
LUVERNE        CLOUDY    43  37  81 NE7       30.06R
MARSHALL       PTCLDY    42  38  85 CALM      30.09S
6HR MIN TEMP:  42; 6HR MAX TEMP:  52;

MONTEVIDEO     CLEAR     39  36  87 E7        30.11S
REDWOOD FALLS  PTCLDY    44  38  79 CALM      30.09S
TRACY          PTCLDY    43  40  89 S5        30.09R
WINDOM         CLEAR     39  37  93 CALM      30.08R
WORTHINGTON    CLEAR     40  38  93 NE9       30.06S
$$

IAZ001>003-012>014-020>022-031-032-NEZ013-014-SDZ071-300700-
NORTHWEST IOWA

CITY           SKY/WX    TMP DP  RH WIND       PRES   REMARKS
DENISON        CLOUDY    45  41  87 E16G24    29.93F
ESTHERVILLE    CLOUDY    41  39  93 NE8       30.05S
SIOUX CITY     CLOUDY    47  39  74 E14       29.98F
6HR MIN TEMP:  47; 6HR MAX TEMP:  48; 6HR PCP: TRACE;

SPENCER        CLOUDY    45  38  76 E13       30.04F
6HR MIN TEMP:  43; 6HR MAX TEMP:  48;

STORM LAKE     CLOUDY    43  41  93 E15       30.00F
$$

ABBREVIATIONS USED IN REMARKS
   TC - TEMPERATURE IN CELSIUS
  WCI - WIND CHILL INDEX
   HX - HEAT INDEX
  VSB - VISIBILITY





USA.gov is the U.S. government's official web portal to all federal, state and local government web resources and services.